This is the latest recevied weather packets stored in our database for station/object Rana. If no packets are shown the sender has not sent any weather packets the latest 1 day(s).
| Time | Temp. | Humidity | Pressure | Rain* | Wind** | Luminosity | Snow |
|---|---|---|---|---|---|---|---|
| 1836274684 | 12.78° C | 84% | - | - | 4.92 m/s, 100° | - | - |
| 1836274383 | 12.78° C | 84% | - | - | 4.92 m/s, 100° | - | - |
| 1836274234 | 12.78° C | 84% | - | - | 5.81 m/s, 99° | - | - |
| 1836274084 | 12.78° C | 83% | - | - | 4.92 m/s, 100° | - | - |
| 1778019613 | 11.11° C | 88% | - | - | 4.02 m/s, 307° | - | - |
| 1778019311 | 11.11° C | 89% | - | - | 4.92 m/s, 329° | - | - |
| 1778019010 | 10° C | 89% | - | - | 4.92 m/s, 324° | - | - |
| 1778018710 | 10° C | 89% | - | - | 4.02 m/s, 309° | - | - |
| 1778018410 | 10° C | 89% | - | - | 5.81 m/s, 325° | - | - |
| 1778018110 | 10° C | 89% | - | - | 5.81 m/s, 322° | - | - |
| 1778017815 | 10° C | 89% | - | - | 5.81 m/s, 314° | - | - |
| 1778017510 | 10° C | 88% | - | - | 4.92 m/s, 295° | - | - |
| 1778017210 | 10° C | 88% | - | - | 4.92 m/s, 296° | - | - |
| 1778016910 | 10° C | 88% | - | - | 7.15 m/s, 290° | - | - |
| 1778016610 | 10° C | 88% | - | - | 8.05 m/s, 286° | - | - |
| 1778016311 | 10° C | 88% | - | - | 7.15 m/s, 286° | - | - |
| 1778016011 | 10° C | 88% | - | - | 7.15 m/s, 285° | - | - |
| 1778015711 | 10° C | 88% | - | - | 8.05 m/s, 288° | - | - |
| 1778015410 | 10° C | 88% | - | - | 11.18 m/s, 280° | - | - |
| 1778015110 | 10° C | 88% | - | - | 9.83 m/s, 280° | - | - |
| 1778014810 | 10° C | 87% | - | - | 9.83 m/s, 275° | - | - |
| 1778014510 | 10° C | 87% | - | - | 9.83 m/s, 284° | - | - |
| 1778014209 | 10° C | 85% | - | - | 8.05 m/s, 279° | - | - |
| 1778013911 | 10° C | 86% | - | - | 5.81 m/s, 299° | - | - |
| 1778013610 | 10° C | 85% | - | - | 8.94 m/s, 268° | - | - |
* Rain since midnight (hover to see other rain measurements)
** Current wind speed in m/s (hover to see current wind gust speed)